Weather History for Geneva, Switzerland

Change the Weather History Date:

Sunday, November 25, 2012

  Actual Average Record
Temperature  
Mean Temperature 48 °F -  
Max Temperature 56 °F 41 °F 68 °F (2006)
Min Temperature 39 °F 31 °F 21 °F (1998)
Degree Days  
Heating Degree Days 18    
Moisture  
Dew Point 46 °F    
Average Humidity 78    
Maximum Humidity 100    
Minimum Humidity 48    
Precipitation  
Precipitation 0.04 in 0.11 in - ()
Sea Level Pressure  
Sea Level Pressure 30.07 in    
Wind  
Wind Speed 6 mph ()    
Max Wind Speed 13 mph    
Max Gust Speed -    
Visibility 6.4 miles    
Events Fog , Rain    
Averages and records for this station are not official NWS values.
T = Trace of Precipitation, MM = Missing Value Source: Averaged Metar Reports

Daily Weather History Graph

Daily Weather History Graph

Search for Another Location

Airport:

Trip Planner

Search our weather history database for the weather conditions in past years. The results will help you decide how hot, cold, wet, or windy it might be!

Date:

Astronomy

Nov. 25, 2012 Rise Set
Actual Time 7:50 AM CET 4:54 PM CET
Civil Twilight 7:17 AM CET 5:27 PM CET
Nautical Twilight 6:39 AM CET 6:04 PM CET
Astronomical Twilight 6:03 AM CET 6:40 PM CET
Moon 3:08 PM CET (11/25) 4:42 AM CET (11/25)
Length of Visible Light 10h 10m
Length of Day
9h 03m
Waxing Gibbous, 91% of the Moon is Illuminated
Nov 25
Waxing Gibbous
Nov 28
Full
Dec 6
Last Quarter
Dec 13
New
Dec 20
First Quarter

Hourly Weather History & Observations

Time (CET) Temp. Windchill Dew Point Humidity Pressure Visibility Wind Dir Wind Speed Gust Speed Precip Events Conditions
12:00 AM 41 °F - 39 °F 92% 30.12 in - WNW 2.3 mph - -  
12:20 AM 39.2 °F - 37.4 °F 93% 30.06 in 2.5 mi Variable 1.2 mph - N/A Fog Fog
12:50 AM 39.2 °F 37.0 °F 39.2 °F 100% 30.06 in - Variable 3.5 mph - N/A   Clear
1:00 AM 48 °F - 40 °F 67% 30.10 in 2 mi WSW 10.4 mph - - Fog Patches of Fog
1:20 AM 46.4 °F 41.5 °F 42.8 °F 87% 30.06 in 6.2 mi SW 10.4 mph - N/A   Partly Cloudy
1:50 AM 53.6 °F - 41.0 °F 62% 30.06 in 6.2 mi SW 10.4 mph - N/A   Partly Cloudy
2:00 AM 53 °F - 40 °F 49% 30.09 in - SW 11.5 mph - -  
2:50 AM 53.6 °F - 42.8 °F 67% 30.09 in 6.2 mi SSW 11.5 mph - N/A   Mostly Cloudy
3:00 AM 55 °F - 41 °F 48% 30.10 in - SW 10.4 mph - -  
3:20 AM 53.6 °F - 42.8 °F 67% 30.09 in 6.2 mi WSW 6.9 mph - N/A   Mostly Cloudy
3:50 AM 55.4 °F - 42.8 °F 63% 30.09 in 6.2 mi WSW 9.2 mph - N/A   Mostly Cloudy
4:20 AM 55.4 °F - 42.8 °F 63% 30.06 in 6.2 mi SW 6.9 mph - N/A   Mostly Cloudy
4:50 AM 55.4 °F - 44.6 °F 67% 30.09 in 6.2 mi SW 11.5 mph - N/A Rain Light Rain
5:00 AM 52 °F - 44 °F 64% 30.10 in - WSW 10.4 mph - -  
5:20 AM 51.8 °F - 44.6 °F 76% 30.09 in 6.2 mi WSW 5.8 mph - N/A   Mostly Cloudy
5:50 AM 51.8 °F - 44.6 °F 76% 30.09 in 6.2 mi SW 4.6 mph - N/A   Mostly Cloudy
6:00 AM 52 °F - 44 °F 64% 30.09 in - SW 3.5 mph - -  
6:20 AM 53.6 °F - 44.6 °F 72% 30.09 in 6.2 mi SW 6.9 mph - N/A   Mostly Cloudy
6:50 AM 53.6 °F - 44.6 °F 72% 30.09 in 6.2 mi SW 4.6 mph - N/A   Mostly Cloudy
7:00 AM 52 °F - 43 °F 64% 30.09 in 28 mi WSW 5.8 mph - -   Partly Cloudy
7:20 AM 53.6 °F - 44.6 °F 72% 30.09 in 6.2 mi SSW 8.1 mph - N/A   Mostly Cloudy
7:50 AM 51.8 °F - 44.6 °F 76% 30.09 in 6.2 mi WSW 5.8 mph - N/A   Mostly Cloudy
8:00 AM 51 °F - 44 °F 68% 30.11 in - WSW 5.8 mph - -  
8:20 AM 51.8 °F - 44.6 °F 76% 30.09 in 6.2 mi WSW 5.8 mph - N/A   Mostly Cloudy
8:50 AM 53.6 °F - 44.6 °F 72% 30.09 in 6.2 mi SSW 8.1 mph - N/A   Mostly Cloudy
9:00 AM 54 °F - 43 °F 57% 30.11 in - South 11.5 mph - -  
9:20 AM 53.6 °F - 44.6 °F 72% 30.09 in 6.2 mi South 10.4 mph - N/A   Mostly Cloudy
9:50 AM 53.6 °F - 46.4 °F 77% 30.09 in 6.2 mi South 5.8 mph - N/A   Mostly Cloudy
10:20 AM 55.4 °F - 46.4 °F 72% 30.12 in 6.2 mi SSW 6.9 mph - N/A   Mostly Cloudy
10:50 AM 55.4 °F - 46.4 °F 72% 30.12 in 6.2 mi SSW 3.5 mph - N/A Rain Light Rain Showers
11:00 AM 55 °F - 47 °F 65% 30.13 in - SSW 6.9 mph - -  
11:20 AM 55.4 °F - 48.2 °F 77% 30.12 in 6.2 mi SSW 10.4 mph - N/A   Mostly Cloudy
11:50 AM 55.4 °F - 48.2 °F 77% 30.12 in 6.2 mi SW 8.1 mph - N/A   Mostly Cloudy
12:00 PM 56 °F - 48 °F 66% 30.11 in - SSW 10.4 mph - -  
12:20 PM 55.4 °F - 50.0 °F 82% 30.09 in 6.2 mi SSW 12.7 mph - N/A Rain Light Rain Showers
12:50 PM 57.2 °F - 50.0 °F 77% 30.09 in 6.2 mi SSW 11.5 mph - N/A   Mostly Cloudy
1:00 PM 57 °F - 48 °F 62% 30.10 in 16 mi SW 11.5 mph - - Rain Light Rain Showers
1:20 PM 57.2 °F - 48.2 °F 72% 30.09 in 6.2 mi SW 11.5 mph - N/A   Mostly Cloudy
1:50 PM 57.2 °F - 48.2 °F 72% 30.09 in 6.2 mi SSW 11.5 mph - N/A   Mostly Cloudy
2:00 PM 56 °F - 48 °F 66% 30.09 in - SSW 11.5 mph - -  
2:20 PM 55.4 °F - 50.0 °F 82% 30.09 in 6.2 mi SSW 10.4 mph - N/A   Mostly Cloudy
2:50 PM 53.6 °F - 50.0 °F 88% 30.06 in 6.2 mi SSW 9.2 mph - N/A Rain Light Rain Showers
3:00 PM 54 °F - 49 °F 79% 30.08 in - SSW 8.1 mph - -  
3:20 PM 53.6 °F - 50.0 °F 88% 30.06 in 6.2 mi SW 6.9 mph - N/A   Mostly Cloudy
3:50 PM 53.6 °F - 48.2 °F 82% 30.06 in 6.2 mi SW 5.8 mph - N/A   Mostly Cloudy
4:20 PM 53.6 °F - 50.0 °F 88% 30.06 in 6.2 mi WSW 3.5 mph - N/A   Mostly Cloudy
4:50 PM 51.8 °F - 48.2 °F 88% 30.06 in 6.2 mi Variable 2.3 mph - N/A   Mostly Cloudy
5:00 PM 52 °F - 48 °F 83% 30.07 in - WNW 1.2 mph - -  
5:20 PM 53.6 °F - 50.0 °F 88% 30.06 in 6.2 mi Variable 1.2 mph - N/A   Mostly Cloudy
5:50 PM 51.8 °F - 48.2 °F 88% 30.06 in 6.2 mi Variable 2.3 mph - N/A   Mostly Cloudy
6:00 PM 52 °F - 48 °F 82% 30.06 in - West 3.5 mph - -  
6:20 PM 51.8 °F - 48.2 °F 88% 30.04 in 6.2 mi SW 3.5 mph - N/A   Mostly Cloudy
6:50 PM 51.8 °F - 48.2 °F 88% 30.04 in 6.2 mi WSW 1.2 mph - N/A   Mostly Cloudy
7:00 PM 51 °F - 48 °F 84% 30.05 in 16 mi SW 2.3 mph - -   Partly Cloudy
7:20 PM 50.0 °F - 48.2 °F 94% 30.04 in 6.2 mi Variable 1.2 mph - N/A   Mostly Cloudy
7:50 PM 51.8 °F - 48.2 °F 88% 30.04 in 6.2 mi Variable 1.2 mph - N/A   Mostly Cloudy
8:00 PM 50 °F - 47 °F 85% 30.05 in - NNW 1.2 mph - -  
8:20 PM 50.0 °F - 48.2 °F 94% 30.04 in 6.2 mi Variable 1.2 mph - N/A   Mostly Cloudy
8:50 PM 50.0 °F - 48.2 °F 94% 30.01 in 6.2 mi Calm Calm - N/A   Mostly Cloudy
9:00 PM 51 °F - 47 °F 81% 30.03 in - NNW 3.5 mph - -  
9:20 PM 50.0 °F - 46.4 °F 87% 30.01 in 6.2 mi Variable 1.2 mph - N/A Rain Light Rain Showers
9:50 PM 50.0 °F - 48.2 °F 94% 30.01 in 6.2 mi Calm Calm - N/A   Mostly Cloudy
10:20 PM 50.0 °F - 48.2 °F 94% 30.01 in 6.2 mi Variable 2.3 mph - N/A Rain Light Rain Showers
10:50 PM 50.0 °F - 48.2 °F 94% 29.98 in 6.2 mi Variable 1.2 mph - N/A Rain Light Rain Showers
11:00 PM 49 °F - 48 °F 94% 30.01 in - NNW 1.2 mph - -  
11:20 PM 48.2 °F - 48.2 °F 100% 29.98 in 6.2 mi Variable 1.2 mph - N/A Rain Light Rain Showers
11:50 PM 48.2 °F - 48.2 °F 100% 29.98 in 6.2 mi Variable 1.2 mph - N/A Rain Light Rain